Weather History for KMHS - June, 2013

Change the Weather History Date:

Monday, June 17, 2013

  Actual Average Record
Temperature  
Mean Temperature 62 °F 62 °F  
Max Temperature 80 °F 77 °F 97 °F (1985)
Min Temperature 44 °F 46 °F 30 °F (1929)
Degree Days  
Heating Degree Days 3 4  
Month to date heating degree days 27 98  
Since 1 June heating degree days 27 98  
Since 1 July heating degree days 5036 5650  
Cooling Degree Days 0 1  
Month to date cooling degree days 61 17  
Year to date cooling degree days 70 25  
Since 1 June cooling degree days 61 17  
Growing Degree Days 12 (Base 50)    
Moisture  
Dew Point 41 °F    
Average Humidity 46    
Maximum Humidity 76    
Minimum Humidity 27    
Precipitation  
Precipitation 0.00 in 0.04 in 1.87 in (2005)
Month to date precipitation 0.00 0.81  
Year to date precipitation 6.41 26.21  
Sea Level Pressure  
Sea Level Pressure 30.03 in    
Wind  
Wind Speed 2 mph (ENE)    
Max Wind Speed 7 mph    
Max Gust Speed 20 mph    
Visibility 10 miles    
Events      
T = Trace of Precipitation, MM = Missing Value Source: NWS Daily Summary

Daily Weather History Graph

Daily Weather History Graph

Search for Another Location

Airport or City:

Trip Planner

Search our weather history database for the weather conditions in past years. The results will help you decide how hot, cold, wet, or windy it might be!

Date:

Astronomy

Jun. 17, 2013 Rise Set
Actual Time 5:35 AM PDT 8:45 PM PDT
Civil Twilight 5:01 AM PDT 9:18 PM PDT
Nautical Twilight 4:18 AM PDT 10:02 PM PDT
Astronomical Twilight 3:26 AM PDT 10:54 PM PDT
Moon 2:26 PM PDT (6/17) 1:17 AM PDT (6/17)
Length of Visible Light 16h 17m
Length of Day
15h 09m
First Quarter, 61% of the Moon is Illuminated
Jun 17
First Quarter
Jun 23
Full
Jun 29
Last Quarter
Jul 8
New
Jul 15
First Quarter

Hourly Weather History & Observations

Time (PDT) Temp. Windchill Dew Point Humidity Pressure Visibility Wind Dir Wind Speed Gust Speed Precip Events Conditions
12:56 AM 57.0 °F - 39.9 °F 53% 30.09 in 10.0 mi Calm Calm - N/A   Clear
1:56 AM 53.1 °F - 39.9 °F 61% 30.09 in 10.0 mi Calm Calm - N/A   Clear
2:56 AM 51.1 °F - 37.9 °F 61% 30.09 in 10.0 mi Calm Calm - N/A   Clear
3:56 AM 46.9 °F - 37.9 °F 71% 30.08 in 10.0 mi ENE 3.5 mph - N/A   Clear
4:56 AM 46.0 °F - 37.9 °F 73% 30.09 in 10.0 mi Calm Calm - N/A   Clear
5:56 AM 45.0 °F 43.5 °F 37.9 °F 76% 30.09 in 10.0 mi ENE 3.5 mph - N/A   Clear
6:56 AM 50.0 °F - 39.9 °F 68% 30.09 in 10.0 mi Calm Calm - N/A   Clear
7:56 AM 59.0 °F - 43.0 °F 55% 30.07 in 10.0 mi Calm Calm - N/A   Clear
8:56 AM 64.9 °F - 43.0 °F 45% 30.06 in 10.0 mi Calm Calm - N/A   Clear
9:56 AM 70.0 °F - 37.0 °F 30% 30.05 in 10.0 mi Variable 3.5 mph - N/A   Clear
10:56 AM 73.0 °F - 39.0 °F 29% 30.03 in 10.0 mi Calm Calm - N/A   Clear
11:56 AM 75.0 °F - 39.0 °F 27% 30.03 in 10.0 mi Variable 3.5 mph - N/A   Clear
12:56 PM 75.9 °F - 39.9 °F 27% 30.01 in 10.0 mi Variable 3.5 mph - N/A   Clear
1:56 PM 78.1 °F - 42.1 °F 28% 30.01 in 10.0 mi Variable 5.8 mph - N/A   Clear
2:56 PM 78.1 °F - 42.1 °F 28% 30.00 in 10.0 mi Calm Calm - N/A   Partly Cloudy
3:56 PM 75.0 °F - 44.1 °F 33% 30.00 in 10.0 mi Variable 3.5 mph - N/A   Scattered Clouds
4:56 PM 75.0 °F - 43.0 °F 32% 29.99 in 10.0 mi Variable 4.6 mph - N/A   Scattered Clouds
5:56 PM 73.0 °F - 42.1 °F 33% 29.99 in 10.0 mi Calm Calm - N/A   Scattered Clouds
6:56 PM 71.1 °F - 43.0 °F 36% 29.97 in 10.0 mi Calm Calm - N/A   Mostly Cloudy
7:56 PM 70.0 °F - 43.0 °F 38% 29.95 in 10.0 mi Calm Calm - N/A   Scattered Clouds
8:56 PM 64.9 °F - 43.0 °F 45% 29.96 in 10.0 mi Calm Calm - N/A   Scattered Clouds
9:56 PM 62.1 °F - 45.0 °F 53% 29.97 in 10.0 mi Variable 3.5 mph - N/A   Overcast
10:56 PM 60.1 °F - 43.0 °F 53% 29.97 in 10.0 mi Variable 3.5 mph - N/A   Clear
11:56 PM 57.0 °F - 42.1 °F 57% 29.97 in 10.0 mi Calm Calm - N/A   Clear